User: anonymous   Login
Location: Caltech
(34.1382°N, 118.1253°W)
Time: 05:52:24
(UTC-07:00)
Language:

Cosmos 1980 Rocket - Orbit

View from above orbital plane
View from above orbital plane
View from above satellite
View from above satellite

Ground track
Ground track

The orbit data is extracted from the following two-line orbital elements,

1 19650U 88102B   17268.90355002 +.00000038 +00000-0 +43562-4 0  9993
2 19650 070.9996 163.3194 0013346 021.3596 338.8081 14.15760299489975
Epoch (UTC): 25 September 2017 21:41:06
Eccentricity: 0.0013346
inclination: 70.9996°
perigee height: 830 km
apogee height: 849 km
right ascension of ascending node: 163.3194°
argument of perigee: 21.3596°
revolutions per day: 14.15760299
mean anomaly at epoch: 338.8081°
orbit number at epoch: 48997

The dashed part of the orbit path shows where the satellite is in the earth's shadow,  

DLR